Flag for Germany Weather past 2 weeks in Höxter, North Rhine-Westphalia, Germany

Now
83 °F

Sunny.


Feels Like: 82 °F
Forecast: 62 / 91 °F
Wind: 6 mph from East

Location: Bad Lippspringe

Current Time: Jul 1, 2015 at 2:52:37 PM

Latest Report: Jul 1, 2015 at 2:00 PM


Visibility: 7 mi

Pressure: 30.11 "Hg

Humidity: 37%

Dew point: 55 °F

Location of HöxterLocation

Historic Weather in Höxter — Graph

°F

Höxter temperature yesterday

Maximum temperature yesterday: 78 °F (at 6:00 PM)
Minimum temperature yesterday: 54 °F (at 5:00 AM)
Average temperature yesterday: 68 °F

Past Weeks' High & Low Weather Summary

 TemperatureHumidityPressure
High83 °F (Jul 1, 1:00 PM)100% (Jun 18, 6:00 AM)30.32 "Hg (Jun 18, 6:00 AM)
Low37 °F (Jun 17, 4:00 AM)38% (Jun 30, 6:00 PM)29.67 "Hg (Jun 22, 11:00 PM)
Average60 °F73%30.07 "Hg
* Reported Jun 16 1:00 PM — Jul 1 1:00 PM, Höxter, Weather by CustomWeather, © 2015

Note: Actual official high and low records may vary slightly from our data, if they occured in-between our weather recording intervals... More about our weather records

Advertising

Höxter weather history for previous 24 hours

 ConditionsComfort  
Time TempWeatherWind HumidityBarometerVisibility
1:00 PM
Wed, Jul 1
83 °FSunny.6 mph38%30.12 "Hg7 mi
12:00 PM80 °FPassing clouds.3 mph41%30.13 "Hg11 mi
11:00 AM78 °FSunny.3 mph45%30.14 "Hg9 mi
10:00 AM75 °FSunny.6 mph44%30.14 "Hg6 mi
9:00 AM72 °FSunny.3 mph47%30.15 "Hg8 mi
8:00 AM70 °FSunny.3 mph49%30.15 "Hg16 mi
7:00 AM68 °FSunny.6 mph50%30.14 "Hg11 mi
6:00 AM66 °FSunny.5 mph54%30.14 "Hg19 mi
5:00 AM66 °FClear.5 mph53%30.14 "Hg28 mi
4:00 AM67 °FClear.6 mph51%30.14 "Hg28 mi
3:00 AM66 °FClear.5 mph54%30.14 "Hg25 mi
2:00 AM66 °FClear.6 mph54%30.15 "Hg31 mi
1:00 AM66 °FClear.6 mph55%30.15 "Hg31 mi
12:00 AM66 °FClear.5 mph60%30.16 "Hg28 mi
11:00 PM
Tue, Jun 30
67 °FClear.5 mph57%30.16 "Hg25 mi
10:00 PM68 °FClear.5 mph52%30.15 "Hg28 mi
9:00 PM72 °FSunny.3 mph52%30.14 "Hg22 mi
8:00 PM75 °FSunny.5 mph44%30.13 "Hg10 mi
7:00 PM77 °FSunny.5 mph38%30.13 "Hg14 mi
6:00 PM78 °FSunny.3 mph38%30.14 "Hg18 mi
4:00 PM78 °FSunny.2 mph43%30.16 "Hg14 mi
3:00 PM76 °FSunny.2 mph42%30.16 "Hg22 mi
2:00 PM76 °FSunny.2 mph42%30.18 "Hg17 mi
Weather by CustomWeather, © 2015

See weather overviewHow to use our weather pages